Regional Weather Roundup
Issued by NWS

Home | Current Version | Previous Version | Text Only | Print | Product List | Glossary Off
Versions: 1 2 3 4 5 6 7 8 9 10 11 12 13 14 15 16 17 18 19 20 21 22 23 24 25 26 27 28 29 30 31 32 33 34 35 36 37 38 39 40 41 42 43 44 45 46 47 48 49 50

000
ASUS43 KMPX 261110
RWRMN
WEATHER ROUNDUP FOR MINNESOTA
NATIONAL WEATHER SERVICE TWIN CITIES/CHANHASSEN MN
600 AM CDT SUN MAR 26 2017


NOTE: "FAIR" INDICATES FEW OR NO CLOUDS BELOW 12,000 FEET WITH NO
SIGNIFICANT WEATHER AND/OR OBSTRUCTIONS TO VISIBILITY. N/A MEANS
CURRENT SKY AND/OR WEATHER CONDITIONS ARE NOT AVAILABLE.

MNZ060>063-068>070-261200-
   Twin Cities Metro

CITY           SKY/WX    TMP DP  RH WIND       PRES   REMARKS
TWIN CITIES    CLOUDY    36  33  89 NE6       29.94S
ST PAUL        CLOUDY    36  35  96 E7        29.96R
CRYSTAL        LGT RAIN  36  33  89 NE3       29.94S FOG
BLAINE         LGT RAIN  37  37 100 NE3       29.95S
LAKEVILLE      CLOUDY    34  34 100 E8        29.93S WCI  27
EDEN PRAIRIE   CLOUDY    37  34  89 E7        29.93S
SOUTH ST PAUL  CLOUDY    36  35  95 NE3       29.94S
LAKE ELMO      CLOUDY    36  34  93 E6        29.95S
$$
MNZ001>005-007-008-013>017-022>024-027-028-261200-
   Northwest Minnesota

CITY           SKY/WX    TMP DP  RH WIND       PRES   REMARKS
BEMIDJI        CLOUDY    31  31  98 E3        29.98F
HALLOCK        CLOUDY    34  32  93 S10       29.96R WCI  26
ROSEAU         CLOUDY    34  28  80 SE6       29.98S WCI  29
WARROAD        CLOUDY    32  28  86 S3        29.99S
THIEF RVR FALL CLOUDY    33  32  96 S6        29.99  WCI  28
CROOKSTON      CLOUDY    34  34 100 S5        29.99F WCI  30
FOSSTON        CLOUDY    30  28  93 SE3       29.98S
DETROIT LAKES  CLOUDY    34  32  93 SE3       29.98S
MOORHEAD       CLOUDY    34  32  93 CALM      29.99S FOG
PARK RAPIDS    CLOUDY    33  28  81 NE3       29.97F
MAHNOMEN       CLOUDY    32  30  90 SE5       29.97F WCI  28
$$
MNZ006-009>011-018-025>026-261200-
   North Central Minnesota

CITY           SKY/WX    TMP DP  RH WIND       PRES   REMARKS
BAUDETTE       CLOUDY    31  29  92 S6        29.99F WCI  25
FLAG ISLAND    CLOUDY    30  28  93 S12       29.98F WCI  21
INTL FALLS     CLOUDY    31  28  89 SE5       30.01F WCI  26
WASKISH        CLOUDY    30  30 100 CALM      30.00S
BIG FORK       CLOUDY    32  30  93 CALM      30.01S FOG
LONGVILLE      CLOUDY    30  30 100 CALM      29.99R
GRAND RAPIDS   CLOUDY    31  30  96 CALM      30.01F
CRANE LAKE     CLOUDY    28  28 100 CALM      30.05F
ORR            CLOUDY    30  28  93 CALM      30.00S
COOK           CLOUDY    30  28  93 CALM      30.02S
WALKER         CLOUDY    31  31  99 CALM      29.99S FOG
$$
MNZ012-019>021-037-261200-
   Northeast Minnesota

CITY           SKY/WX    TMP DP  RH WIND       PRES   REMARKS
DULUTH         FRZ DRZL  31  31 100 E9        29.98F WCI  23
ELY            CLOUDY    30  28  93 CALM      30.01S
HIBBING        CLOUDY    30  30 100 CALM      30.00S
EVELETH        CLOUDY    32  31  96 NE3       30.01S
DULUTH HARBOR  CLOUDY    34  32  93 NE13      30.03S WCI  25
TWO HARBORS    DRIZZLE   34  28  80 NE6       29.99S WCI  29
SILVER BAY     LGT RAIN  34  32  93 NE6       30.00S WCI  29
GRAND MARAIS     N/A     35  28  75 NE8       30.05F WCI  29
G MARAIS ARPRT CLOUDY    28  23  80 E5        30.01S WCI  23
$$
MNZ029>031-032-039>041-046>048-054>057-064-261200-
   West Central Minnesota

CITY           SKY/WX    TMP DP  RH WIND       PRES   REMARKS
FERGUS FALLS   CLOUDY    36  30  80 E3        30.01S
WHEATON        CLOUDY    36  34  93 N3        29.99S FOG
MORRIS         CLOUDY    36  36 100 NE5       29.96R FOG
ALEXANDRIA     CLOUDY    34  30  85 NE7       29.97R WCI  28
ELBOW LAKE     CLOUDY    35  33  95 CALM      29.98R
WADENA         CLOUDY    32  28  86 NE3       29.97S
GLENWOOD       CLOUDY    34  30  86 NE7       29.96S WCI  28
APPLETON       CLOUDY    37  36  93 CALM      29.95S FOG
BENSON         CLOUDY    37  34  87 NE3       29.97S
ORTONVILLE     CLOUDY    36  34  93 NE3       29.96R FOG
MADISON        CLOUDY    37  37 100 N3        29.95S FOG
WILLMAR        CLOUDY    37  36  93 NE3       29.95S
$$
MNZ033>034-036-042>043-049>051-058-059-261200-
   Central Minnesota

CITY           SKY/WX    TMP DP  RH WIND       PRES   REMARKS
ST CLOUD       CLOUDY    34  32  92 NE6       29.96S WCI  29
SAUK CENTRE    CLOUDY    34  30  88 NE6       29.96S WCI  28
PAYNESVILLE      N/A     34  34 100 NE3       29.96S
AITKIN         CLOUDY    34  30  86 NE3       29.97F FOG
PINE RIVER     CLOUDY    32  32 100 E3        30.02S
BRAINERD       CLOUDY    33  30  88 NE6       29.98F WCI  28
STAPLES        CLOUDY    34  28  80 CALM      29.98S
LONG PRAIRIE   CLOUDY    32  30  93 N3        29.97S
LITTLE FALLS   CLOUDY    34  30  86 CALM      29.98S
LITCHFIELD     DRIZZLE   36  34  93 N7        29.95S
BUFFALO        DRIZZLE   35  33  94 N5        29.96S WCI  31
MAPLE LAKE     RAIN      35  34  98 N7        29.95F WCI  29
HUTCHINSON     DRIZZLE   37  37  99 NE6       29.95S
$$
MNZ037-044-045-052-053-261200-
   East Central Minnesota

CITY           SKY/WX    TMP DP  RH WIND       PRES   REMARKS
PRINCETON      DRIZZLE   34  34 100 N5        29.97R WCI  30
MORA           CLOUDY    32  30  93 CALM      29.99S FOG
CAMBRIDGE      CLOUDY    36  32  87 N5        29.95S
RUSH CITY      CLOUDY    33  32  96 N7        29.97R WCI  27
MOOSE LAKE     CLOUDY    32  32 100 NE5       29.97S WCI  27
CLOQUET        CLOUDY    32  30  93 NE5       29.98F FOG     WCI  27
MCGREGOR       CLOUDY    32  32 100 CALM      29.99S
$$
MNZ071>073-080-081-089-090-097-098-261200-
   Southwest Minnesota

CITY           SKY/WX    TMP DP  RH WIND       PRES   REMARKS
MONTEVIDEO     CLOUDY    36  36 100 NE5       29.97R
GRANITE FALLS  CLOUDY    38  37  94 N3        29.96R
CANBY          CLOUDY    37  37  99 CALM      29.95S FOG
MARSHALL       CLOUDY    36  35  96 N5        29.94S FOG
REDWOOD FALLS  LGT RAIN  37  35  92 N3        29.93S FOG
OLIVIA         CLOUDY    36  34  93 NE5       29.93S
PIPESTONE      SNOW      36  34  93 NE3       29.90S VSB 1/4
WINDOM         DRZL/FOG  36  36 100 N7        29.91S VSB 3/4
WORTHINGTON    FOG       35  35 100 NE7       29.90S VSB 1/2 WCI  29
JACKSON        FOG       36  36 100 N7        29.91R VSB 1
TRACY          CLOUDY    37  37 100 NE5       29.92S FOG
SLAYTON        SNOW      34  34 100 N5        29.92R VSB 1/4 WCI  30
$$
MNZ065>067-074>077-082>085-091>093-261200-
   South Central Minnesota

CITY           SKY/WX    TMP DP  RH WIND       PRES   REMARKS
MANKATO        CLOUDY    36  34  92 E6        29.92
NEW ULM        CLOUDY    36  36 100 NE5       29.93R
ST JAMES       CLOUDY    36  36 100 CALM      29.93R FOG
FAIRMONT       MIX PCPN  36  36 100 NE7       29.91R FOG
GLENCOE        CLOUDY    37  37 100 CALM      29.93S FOG
FARIBAULT      CLOUDY    36  34  93 NE5       29.92S FOG
OWATONNA       FOG       36  34  93 NE7       29.90F VSB 1
WASECA         CLOUDY    34  32  93 NE8       29.91F WCI  27
ALBERT LEA     DRZL/FOG  36  36 100 NE7       29.88F VSB 1/2
$$
MNZ078>079-086>088-094>096-261200-
   Southeast Minnesota

CITY           SKY/WX    TMP DP  RH WIND       PRES   REMARKS
ROCHESTER      FOG       34  34 100 NE10      29.89F VSB 3/4 WCI  26
RED WING       CLOUDY    36  34  93 E6        29.93S FOG
STANTON        CLOUDY    36  34  94 E7        29.91F FOG
DODGE CENTER   SNOW      34  34 100 NE6       29.90R VSB 1/2 WCI  29
WINONA         CLOUDY    36  34  93 CALM      29.93S FOG
AUSTIN         CLOUDY    36  34  93 NE3       29.88F FOG
PRESTON        LGT RAIN  34  33  97 NE6       29.89S WCI  29
$$
ABBREVIATIONS USED IN REMARKS
   TC - TEMPERATURES IN CELSIUS
  WCI - WIND CHILL INDEX
   HX - HEAT INDEX
  VSB - VISIBILITY
$$




USA.gov is the U.S. government's official web portal to all federal, state and local government web resources and services.